#timestamp,LO_Frequency,Hit,StdDev 
1513764015.5,286047002.1,N
1513764035.4,286047000.5,N
1513764055.2,286047002.8,N
1513764075.0,286046998.3,N
1513764075.9,286046998.3,N
1513764095.8,286046997.2,N
1513764115.6,286046995.0,N
1513764135.4,286046999.6,N
1513764155.3,286046998.1,N
1513764175.1,286047001.0,N
1513764195.8,286047001.2,N
1513764215.7,286047001.1,N
1513764235.5,286047001.8,N
1513764255.3,286046999.8,N
1513764275.2,286047001.6,N
1513764295.9,286046999.9,N
1513764315.7,286047001.2,N
1513764335.6,286046997.7,N
1513764355.4,286046996.3,N
1513764375.2,286046992.4,Y
1513764395.1,286046995.3,P
1513764396.0,286046995.3,N
1513764415.8,286046997.5,N
1513764435.6,286046996.6,N
1513764455.5,286046997.4,N
1513764475.3,286046995.9,N
1513764495.1,286046999.1,N
1513764515.8,286046999.1,N
1513764535.7,286046995.1,N
1513764555.5,286046997.1,N
1513764575.3,286046995.1,N
1513764595.2,286046995.1,N
1513764615.9,286046995.4,N
1513764635.7,286046999.2,N
1513764655.6,286046998.9,N
1513764675.4,286046999.3,N
1513764695.2,286046996.7,N
1513764715.1,286046999.2,N
1513764716.0,286046999.2,N
1513764735.8,286047001.6,N
1513764755.6,286047001.2,N
1513764775.4,286046998.3,N
1513764795.3,286047000.5,N
1513764815.1,286046999.5,N
1513764835.8,286047000.6,N
1513764855.7,286046996.8,N
1513764875.5,286046999.5,N
1513764895.3,286047002.2,N
1513764915.2,286047002.4,N
1513764935.9,286046999.0,N
1513764955.7,286047000.1,N
1513764975.6,286047002.0,N
1513764995.4,286046999.3,N
1513765015.2,286047000.9,N
1513765035.1,286047004.2,N
1513765036.0,286047004.2,N
1513765055.8,286047004.9,N
1513765075.6,286047006.6,N
1513765095.5,286047008.2,N
1513765115.3,286047007.2,N
1513765135.1,286047005.2,N
1513765155.8,286047009.1,N
1513765175.7,286047013.2,Y
1513765195.5,286047012.0,P
1513765215.3,286047012.2,N
1513765235.2,286047015.2,P
1513765255.0,286047011.6,N
1513765255.9,286047011.6,N
1513765275.8,286047013.4,Y
1513765295.6,286047007.5,P
1513765315.4,286047007.1,P
1513765335.2,286047006.0,P
1513765355.1,286047004.6,N
1513765356.0,286047004.6,N
1513765375.8,286047007.0,Y
1513765395.7,286047001.7,P
1513765415.5,286047005.4,N
1513765435.3,286047002.9,N
1513765455.1,286047005.9,N
1513765475.9,286047006.7,Y
1513765495.7,286046998.7,P
1513765515.5,286046997.3,N
1513765535.4,286046996.2,N
1513765555.2,286046998.6,N
1513765575.0,286046998.1,N
1513765575.9,286046998.1,N
1513765595.8,286047000.6,N
1513765615.6,286047002.3,N
1513765635.4,286046998.4,N
1513765655.3,286046997.9,N
1513765675.1,286046996.8,N
1513765695.8,286046995.2,N
1513765715.7,286046996.3,N
1513765735.5,286046991.9,Y
1513765755.3,286046995.6,P
1513765775.2,286046992.6,P
1513765795.9,286046990.3,P
1513765815.7,286046989.0,Y
1513765835.6,286046995.4,P
1513765855.4,286046997.0,P
1513765875.2,286046999.7,N
1513765895.1,286047000.9,N
1513765896.0,286047000.9,N
1513765915.8,286047003.2,N
1513765935.6,286046999.1,N
1513765955.5,286046995.1,N
1513765975.3,286046993.8,N
1513765995.1,286046993.9,N
1513766015.9,286046992.1,N
1513766035.7,286046992.3,N
1513766055.5,286046994.6,N
1513766075.3,286046991.7,N
1513766095.2,286046996.1,N
1513766115.0,286046994.2,N
1513766115.9,286046994.2,N
1513766135.7,286046995.3,N
1513766155.6,286046998.4,N
1513766175.4,286046999.5,N
1513766195.2,286047000.3,N
1513766215.1,286046997.0,N
1513766216.0,286046997.0,N
1513766235.8,286046994.9,N
1513766255.6,286047000.0,N
1513766275.5,286046999.7,N
1513766295.3,286047002.3,N
1513766315.1,286047001.2,N
1513766335.9,286046999.6,N
1513766355.7,286047001.8,N
1513766375.5,286047001.4,N
1513766395.3,286047001.0,N
1513766415.2,286047000.5,N
1513766435.0,286046998.3,N
1513766435.9,286046998.3,N
1513766455.7,286046999.1,N
1513766475.6,286046994.6,N
1513766495.4,286046993.8,N
1513766515.2,286046997.2,N
1513766535.1,286046997.8,N
1513766536.0,286046997.8,N
1513766555.8,286046997.3,N
1513766575.6,286046996.4,N
1513766595.5,286046994.8,N
1513766615.3,286046993.1,N
1513766635.1,286046992.6,N
1513766655.9,286046987.3,Y
1513766675.7,286046990.7,P
1513766695.5,286046993.9,N
1513766715.4,286046994.8,N
1513766735.2,286046994.6,N
1513766755.0,286046996.7,N
1513766755.9,286046996.7,N
1513766775.8,286046993.6,N
1513766795.6,286046991.5,Y
1513766815.4,286046995.9,P
1513766835.3,286046999.2,N
1513766855.1,286046999.3,N
1513766856.0,286046999.3,N
1513766875.8,286046997.5,N
1513766895.7,286046995.6,N
1513766915.5,286046997.5,N
1513766935.3,286046994.9,Y
1513766955.2,286046998.0,P
1513766975.9,286046995.1,P
1513766995.7,286046998.0,N
1513767015.6,286046990.1,Y
1513767035.4,286046992.3,P
1513767055.2,286046992.4,P
1513767075.0,286046990.9,P
1513767076.0,286046990.9,Y
1513767095.8,286046997.3,P
1513767115.6,286046997.4,N
1513767135.5,286046997.7,N
1513767155.3,286046997.2,N
1513767175.1,286046995.8,N
1513767195.8,286046996.2,N
1513767215.7,286046991.7,Y
1513767235.5,286046993.8,P
1513767255.3,286046995.6,P
1513767275.2,286046995.5,P
1513767295.0,286046999.1,N
1513767295.9,286046999.1,N
1513767315.7,286046999.9,N
1513767335.6,286047000.7,N
1513767355.4,286046997.7,N
1513767375.2,286046996.6,N
1513767395.1,286046998.4,N
1513767396.0,286046998.4,N
1513767415.8,286046999.7,N
1513767435.6,286047003.3,N
1513767455.5,286047002.5,N
1513767475.3,286047003.7,N
1513767495.1,286047003.1,N
1513767515.9,286047006.5,N
1513767535.7,286047013.7,Y
1513767555.5,286047013.2,P
1513767575.4,286047018.8,N
1513767595.2,286047016.1,N
